This is the latest recevied weather packets stored in our database for station/object W0VI. If no packets are shown the sender has not sent any weather packets the latest 10 day(s).
| Time | Temp. | Humidity | Pressure | Rain* | Wind** | Luminosity | Snow |
|---|---|---|---|---|---|---|---|
| 1777772507 | 16.67° C | 41% | 1010.3 hPa | 0 mm | - | 0 W/m² | - |
| 1777772204 | 16.67° C | 41% | 1010.7 hPa | 0 mm | - | 0 W/m² | - |
| 1777771902 | 16.67° C | 40% | 1010.4 hPa | 0 mm | - | 0 W/m² | - |
| 1777771599 | 16.67° C | 39% | 1010.6 hPa | 0 mm | - | 0 W/m² | - |
| 1777771295 | 17.22° C | 38% | 1010.5 hPa | 0 mm | - | 0 W/m² | - |
| 1777770992 | 16.67° C | 37% | 1010.4 hPa | 0 mm | - | 0 W/m² | - |
| 1777770689 | 17.22° C | 38% | 1010.6 hPa | 0 mm | - | 2 W/m² | - |
| 1777770385 | 17.22° C | 38% | 1010.4 hPa | 0 mm | - | 3 W/m² | - |
| 1777770083 | 17.22° C | 38% | 1010.5 hPa | 0 mm | - | 3 W/m² | - |
| 1777769780 | 17.22° C | 37% | 1010.3 hPa | 0 mm | - | 6 W/m² | - |
| 1777769477 | 17.22° C | 38% | 1010.4 hPa | 0 mm | - | 7 W/m² | - |
| 1777769173 | 17.78° C | 37% | 1010.5 hPa | 0 mm | - | 10 W/m² | - |
| 1777768872 | 17.78° C | 36% | 1010.3 hPa | 0 mm | - | 11 W/m² | - |
| 1777768568 | 17.78° C | 34% | 1010.7 hPa | 0 mm | - | 15 W/m² | - |
| 1777768265 | 17.78° C | 34% | 1010.4 hPa | 0 mm | - | 18 W/m² | - |
| 1777767962 | 17.78° C | 34% | 1010.4 hPa | 0 mm | - | 20 W/m² | - |
| 1777767659 | 17.78° C | 35% | 1010.2 hPa | 0 mm | - | 25 W/m² | - |
| 1777767355 | 17.78° C | 38% | 1010.5 hPa | 0 mm | - | 30 W/m² | - |
| 1777767052 | 17.78° C | 39% | 1010.4 hPa | 0 mm | - | 33 W/m² | - |
| 1777766745 | 17.78° C | 38% | 1010.4 hPa | 0 mm | - | 33 W/m² | - |
| 1777766441 | 17.78° C | 37% | 1010.3 hPa | 0 mm | - | 28 W/m² | - |
| 1777766138 | 17.78° C | 37% | 1010.4 hPa | 0 mm | - | 30 W/m² | - |
| 1777765836 | 17.78° C | 37% | 1010.7 hPa | 0 mm | - | 37 W/m² | - |
| 1777765532 | 17.78° C | 36% | 1010.6 hPa | 0 mm | - | 42 W/m² | - |
| 1777765230 | 17.78° C | 36% | 1010.8 hPa | 0 mm | - | 59 W/m² | - |
* Rain latest hour (hover to see other rain measurements)
** Current wind speed in m/s (hover to see current wind gust speed)